Back to catalog

FENGYUN 1C DEB

LostPO
NORAD 31764·DEBRIS·🇨🇳 China

Launched May 10, 1999 from Taiyuan Satellite Launch Center

Loading…

Next Passes (next 24 hours)

TLE

StaleSource: Space-Track

Epoch: Oct 22, 2012, 11:25 UTC

1 31764U 99025CFP 12296.47618687  .00001733  00000-0  12488-2 0  9992
2 31764  98.1533  24.1924 0256818  55.6463 309.3154 13.83258966274811

Track FENGYUN 1C DEB in real time with AllMySat

Download on the App Store